Location: Newark
(43.0000°N, 1.6781°W)
Time: 04:51:09
(UTC+00:00)

X-37B - Pass Details

Date: 13 December 2021
Orbit: 334 x 337 km, 45.0° (Epoch: 11 January)

Event Time Altitude Azimuth Distance (km) Brightness Sun altitude
Rises 17:38:03 0° 275° (W) 2,104 5.6 -11.6°
Reaches altitude 10° 17:40:05 10° 280° (W) 1,267 4.2 -11.9°
Maximum altitude 17:42:52 52° 359° (N) 421 0.6 -12.4°
Enters shadow 17:44:11 26° 65° (ENE) 703 1.3 -12.6°
